STARLINK-1112 (44925 NORAD) Tracking and Keplerian Element Data

This shows tracking and keplerian element data for the satellite.

Feedback or suggestion? Click here.




ElementValue
Catalog44925
NameSTARLINK-1112
Epoch Orbit710
Epoch Day52.91667824
Epoch Year2020
RAAN177.6987
Inclination52.9975
Eccentricity0.0002165
Argument of Perigee80.2495
Mean Anonmoly97.9091
Mean Motion15.05590804
Decay Rate0.0004417
L11 44925U 20001M 20052.91667824 .00044170 00000-0 30308-2 0 9991
L22 44925 52.9975 177.6987 0002165 80.2495 97.9091 15.05590804 7100

Live tracking and technical data element details for STARLINK-1112 (NORAD 44925). STARLINK-1112 can be tracked NOW for your location showing map with azimuth and elevation plus other details from your city location.

Track the satellite on the map from your city or location and see movement details for azimuth, elevation, latitude, longitude, range, height, and movement on the map or in text.







IsCatalogInMostPopularTable: catalog: 44925, numindb: 13
Update: records affected: 1



GetName: 44925 STARLINK-1112

Hit Count: updated at: Wed, 26 Feb 2020 15:32:17 GMT